TimeCEST,TemperatureF,Dew PointF,Humidity,Sea Level PressureIn,VisibilityMPH,Wind Direction,Wind SpeedMPH,Gust SpeedMPH,PrecipitationIn,Events,Conditions,WindDirDegrees,DateUTC
12:00 AM,60.8,53.6,77,29.65,6.2,SE,3.5,-,N/A,,Partly Cloudy,130,2013-05-17 22:00:00
12:30 AM,64.4,55.4,73,29.68,6.2,South,5.8,-,N/A,,Partly Cloudy,180,2013-05-17 22:30:00
1:00 AM,66.2,55.4,68,29.65,6.2,SSW,12.7,-,N/A,,Partly Cloudy,200,2013-05-17 23:00:00
1:30 AM,66.2,55.4,68,29.65,6.2,South,11.5,-,N/A,,Partly Cloudy,190,2013-05-17 23:30:00
2:00 AM,65,54,58,29.67,12,South,15.0,,,,Partly Cloudy,180,2013-05-18 00:00:00
2:00 AM,64.4,55.4,73,29.65,6.2,South,12.7,-,N/A,,Partly Cloudy,180,2013-05-18 00:00:00
2:30 AM,64.4,57.2,77,29.65,6.2,South,12.7,-,N/A,,Partly Cloudy,180,2013-05-18 00:30:00
3:00 AM,66.2,57.2,73,29.65,6.2,South,18.4,-,N/A,,Scattered Clouds,190,2013-05-18 01:00:00
3:30 AM,66.2,59.0,78,29.65,6.2,South,20.7,32.2,N/A,,Scattered Clouds,190,2013-05-18 01:30:00
4:00 AM,64.4,59.0,83,29.65,6.2,South,18.4,31.1,N/A,,Scattered Clouds,190,2013-05-18 02:00:00
4:30 AM,64.4,57.2,77,29.65,6.2,SSW,20.7,32.2,N/A,,Scattered Clouds,210,2013-05-18 02:30:00
5:00 AM,64.4,57.2,77,29.65,6.2,SW,18.4,-,N/A,,Scattered Clouds,220,2013-05-18 03:00:00
5:30 AM,62.6,59.0,88,29.65,6.2,SSW,19.6,-,N/A,,Partly Cloudy,200,2013-05-18 03:30:00
6:00 AM,64.4,59.0,83,29.65,6.2,SSW,18.4,-,N/A,,Partly Cloudy,200,2013-05-18 04:00:00
6:30 AM,62.6,59.0,88,29.65,2.5,SSW,17.3,-,N/A,Rain,Rain Showers,200,2013-05-18 04:30:00
6:40 AM,62.6,59.0,88,29.65,5.6,SSW,19.6,34.5,N/A,Rain,Rain,210,2013-05-18 04:40:00
7:00 AM,62.6,59.0,88,29.65,6.2,SSW,16.1,27.6,N/A,,Scattered Clouds,210,2013-05-18 05:00:00
7:30 AM,62.6,59.0,88,29.65,6.2,SSW,15.0,-,N/A,,Scattered Clouds,210,2013-05-18 05:30:00
8:00 AM,62,55,71,29.68,9,WSW,9.2,,,,Partly Cloudy,240,2013-05-18 06:00:00
8:00 AM,62.6,57.2,82,29.68,6.2,WSW,8.1,-,N/A,,Scattered Clouds,240,2013-05-18 06:00:00
8:30 AM,62.6,55.4,77,29.68,6.2,SW,9.2,-,N/A,,Scattered Clouds,230,2013-05-18 06:30:00
9:00 AM,62.6,53.6,72,29.68,6.2,West,13.8,-,N/A,,Scattered Clouds,260,2013-05-18 07:00:00
9:30 AM,60.8,51.8,72,29.71,6.2,West,18.4,-,N/A,,Scattered Clouds,270,2013-05-18 07:30:00
10:00 AM,62.6,50.0,63,29.71,6.2,West,16.1,-,N/A,,Scattered Clouds,260,2013-05-18 08:00:00
10:30 AM,62.6,48.2,59,29.74,6.2,West,19.6,-,N/A,,Scattered Clouds,260,2013-05-18 08:30:00
11:00 AM,62.6,50.0,63,29.74,6.2,WSW,15.0,-,N/A,,Scattered Clouds,240,2013-05-18 09:00:00
11:30 AM,64.4,50.0,59,29.74,6.2,WSW,17.3,-,N/A,,Scattered Clouds,250,2013-05-18 09:30:00
12:00 PM,64.4,50.0,59,29.77,6.2,West,18.4,-,N/A,,Scattered Clouds,260,2013-05-18 10:00:00
12:30 PM,64.4,46.4,52,29.77,6.2,WSW,18.4,-,N/A,,Partly Cloudy,250,2013-05-18 10:30:00
1:00 PM,64.4,46.4,52,29.77,6.2,WSW,19.6,-,N/A,,Partly Cloudy,250,2013-05-18 11:00:00
1:30 PM,66.2,48.2,52,29.77,6.2,WSW,20.7,-,N/A,,Partly Cloudy,250,2013-05-18 11:30:00
2:00 PM,67,45,33,29.79,17,WSW,20.7,,,,Scattered Clouds,250,2013-05-18 12:00:00
2:00 PM,66.2,46.4,49,29.77,6.2,WSW,21.9,-,N/A,,Partly Cloudy,250,2013-05-18 12:00:00
2:30 PM,66.2,46.4,49,29.80,6.2,WSW,19.6,-,N/A,,Partly Cloudy,250,2013-05-18 12:30:00
3:00 PM,66.2,44.6,46,29.80,6.2,WSW,18.4,-,N/A,,Partly Cloudy,250,2013-05-18 13:00:00
3:30 PM,66.2,42.8,43,29.80,6.2,WSW,20.7,-,N/A,,Partly Cloudy,250,2013-05-18 13:30:00
4:00 PM,66.2,42.8,43,29.80,6.2,WSW,20.7,-,N/A,,Partly Cloudy,250,2013-05-18 14:00:00
4:30 PM,66.2,44.6,46,29.80,6.2,WSW,20.7,-,N/A,,Partly Cloudy,250,2013-05-18 14:30:00
5:00 PM,66.2,44.6,46,29.80,6.2,WSW,17.3,-,N/A,,Partly Cloudy,240,2013-05-18 15:00:00
5:30 PM,66.2,46.4,49,29.80,6.2,SW,16.1,-,N/A,,Partly Cloudy,230,2013-05-18 15:30:00
6:00 PM,66.2,44.6,46,29.80,6.2,WSW,16.1,-,N/A,,Partly Cloudy,240,2013-05-18 16:00:00
6:30 PM,66.2,46.4,49,29.83,6.2,WSW,18.4,-,N/A,,Partly Cloudy,240,2013-05-18 16:30:00
7:00 PM,64.4,46.4,52,29.83,6.2,WSW,18.4,-,N/A,,Partly Cloudy,240,2013-05-18 17:00:00
7:30 PM,64.4,46.4,52,29.83,6.2,WSW,18.4,-,N/A,,Partly Cloudy,240,2013-05-18 17:30:00
8:00 PM,65,45,37,29.86,19,SW,21.9,,,,Scattered Clouds,230,2013-05-18 18:00:00
8:00 PM,64.4,48.2,56,29.86,6.2,WSW,19.6,-,N/A,,Partly Cloudy,240,2013-05-18 18:00:00
8:30 PM,64.4,48.2,56,29.86,6.2,SW,19.6,-,N/A,,Partly Cloudy,230,2013-05-18 18:30:00
9:00 PM,62.6,51.8,68,29.86,6.2,WSW,20.7,-,N/A,,Partly Cloudy,240,2013-05-18 19:00:00
9:30 PM,62.6,51.8,68,29.86,6.2,SW,19.6,-,N/A,,Partly Cloudy,230,2013-05-18 19:30:00
10:00 PM,64.4,50.0,59,29.89,6.2,SW,18.4,-,N/A,,Partly Cloudy,230,2013-05-18 20:00:00
10:30 PM,64.4,51.8,64,29.89,6.2,WSW,17.3,-,N/A,,Partly Cloudy,240,2013-05-18 20:30:00
11:00 PM,62.6,50.0,63,29.89,6.2,WSW,19.6,-,N/A,,Partly Cloudy,240,2013-05-18 21:00:00
11:30 PM,62.6,48.2,59,29.89,6.2,WSW,16.1,-,N/A,,Partly Cloudy,240,2013-05-18 21:30:00